Content
SEND FEEDBACK

Daily
Averages
Monthly
Summary
United States of America

LEWISTOWN, MONTANA


Home > North America > United States > Montana
Elevation: 4197 feet     Latitude: 47 02N     Longitude: 109 28W

WEATHER
 
SELECT A DAY
Number of Records: 263,472;   Date Range: 1/1/95 - 9/16/14
 
SHARE

PRINT THIS DATA

[ ← Previous Day ]
WEATHER ALMANAC - JANUARY 31, 2013
[ Next Day → ]
[ °C ]   °F
Weather ElementAverageHighLow
Temperature11.1 °F34 °F (11:54 pm)-0.4 °F (4:07 am)
Dewpoint6.9 °F28 °F (11:54 pm)-2.9 °F (3:54 am)
Humidity83.6 %92 % (2:39 am)66 % (7:54 pm)
Barometer30.16 in30.30 in (4:54 am)30.03 in (11:54 pm)
Wind Speed3.6 mph11.5 mph (11:54 pm)
Weather ElementAverage
Visibility4.8 mi
Wind DirectionSSE (149.4 °)

Weather ElementTotal
Precipitation0.18 in
Heating Degree Days48.2 (Base 65)
Averaged from 31 records on January 31, 2013
WEATHER CONDITIONS BREAKOUT
WIND DIRECTION BREAKOUT
WEATHER BY HOUR - JANUARY 31, 2013
[ °C ]   °F
Local TimeTemperatureDewpointHumidityBarometerVisibilityWind DirectionWind SpeedGust SpeedPrecipitationEventsConditions
12:54 AM3.0 °F0.0 °F87 %30.22 in0.8 miWest (270°)8.1 mph0.03 inSnowLight Snow
1:13 AM3.2 °F-0.4 °F85 %30.05 in1.0 miWNW (290°)5.8 mph0.01 inSnowLight Snow
1:29 AM3.2 °F-0.4 °F85 %30.04 in1.0 miWNW (290°)5.8 mph0.01 inSnowLight Snow
1:54 AM3.0 °F0.0 °F87 %30.24 in1.8 miNW (310°)6.9 mph0.02 inSnowLight Snow
2:39 AM1.4 °F-0.4 °F92 %30.06 in1.0 miWNW (300°)4.6 mph0.01 inSnowLight Snow
2:54 AM1.9 °F-0.9 °F88 %30.27 in1.0 miWNW (290°)5.8 mph0.01 inSnowLight Snow
3:49 AM1.4 °F-2.2 °F85 %30.06 in1.8 miWSW (250°)5.8 mph0.01 inSnowLight Snow
3:54 AM1.0 °F-2.9 °F83 %30.27 in1.5 miWest (260°)6.9 mph0.01 inSnowLight Snow
4:07 AM-0.4 °F-2.2 °F92 %30.07 in2.0 miWest (260°)4.6 mph0.00 inSnowLight Snow
4:46 AM1.4 °F-2.2 °F85 %30.08 in1.2 miCalm0.01 inSnowLight Snow
4:54 AM1.0 °F-2.9 °F83 %30.30 in1.0 miNNW (330°)3.5 mph0.01 inSnowLight Snow
5:54 AM1.9 °F-0.9 °F88 %30.30 in1.8 miCalm0.01 inSnowLight Snow
6:01 AM1.4 °F-0.4 °F92 %30.09 in2.0 miCalm0.00 inSnowLight Snow
6:17 AM1.4 °F-0.4 °F92 %30.09 in1.2 miSSW (200°)3.5 mph0.01 inSnowLight Snow
6:54 AM3.9 °F0.0 °F84 %30.30 in2.0 miSouth (180°)4.6 mph0.01 inSnowLight Snow
7:01 AM5.0 °F1.4 °F85 %30.08 in1.8 miSouth (170°)4.6 mph0.00 inSnowLight Snow
7:07 AM5.0 °F1.4 °F85 %30.09 in2.5 miSSE (150°)3.5 mph0.00 inSnowLight Snow
7:24 AM10.4 °F6.8 °F85 %30.08 in3.0 miWSW (240°)5.8 mph0.01 inSnowLight Snow
7:54 AM10.0 °F7.0 °F87 %30.28 in4.0 miVariable3.5 mph0.01 inSnowLight Snow
8:54 AM8.1 °F5.0 °F87 %30.29 in10.0 miEast (100°)3.5 mph0.00 inSnowLight Snow
9:54 AM10.0 °F7.0 °F87 %30.29 in7.0 miESE (120°)3.5 mph0.00 inSnowLight Snow
10:54 AM15.1 °F10.0 °F80 %30.27 in10.0 miEast (100°)3.5 mph0.00 inOvercast
11:54 AM19.0 °F14.0 °F81 %30.24 in10.0 miCalmOvercast
12:54 PM23.0 °F18.0 °F81 %30.20 in10.0 miCalmOvercast
1:54 PM24.1 °F18.0 °F77 %30.19 in10.0 miCalmPartly Cloudy
2:54 PM28.0 °F21.0 °F75 %30.16 in10.0 miCalmOvercast
3:54 PM30.0 °F23.0 °F75 %30.15 in10.0 miCalmOvercast
5:54 PM28.9 °F21.9 °F75 %30.13 in10.0 miCalmOvercast
7:54 PM32.0 °F21.9 °F66 %30.10 in10.0 miCalmOvercast
8:54 PM32.0 °F26.1 °F79 %30.09 in10.0 miWest (260°)5.8 mphOvercast
11:54 PM34.0 °F28.0 °F79 %30.03 in10.0 miWest (260°)11.5 mphOvercast
Hourly data recorded from KLWT, located miles away from Lewistown, Montana







STORIES FROM OUR PARTNERS